Location: Unspecified
(0.0000°N, 0.0000°E)
Time: 12:30:04
(UTC+00:00)

USA 184 - Pass Details

Date: 14 June 2023
Orbit: 1078 x 39274 km, 63.5° (Epoch: 28 February)

Event Time Altitude Azimuth Distance (km) Brightness Sun altitude
Rises 08:45:20 0° 220° (SW) 6,092 6.2 37.3°
Reaches altitude 10° 08:47:42 10° 224° (SW) 5,720 6.1 37.8°
Maximum altitude 19:57:50 87° 255° (WSW) 6,846 6.6 -26.8°
Enters shadow 20:13:51 21° 163° (SSE) 5,081 5.8 -30.4°
